Location: C.E.K. Mees Observatory
(42.7003°N, 77.4088°W)
Time: 13:03:35
(UTC-05:00)

Tiangong 2 - Pass Details

Date: 11 October 2017
Orbit: 386 x 390 km, 42.8° (Epoch: 14 December)

Event Time Altitude Azimuth Distance (km) Brightness Sun altitude
Exits shadow 06:10:35 24° 246° (WSW) 861 2.3 -13.3°
Maximum altitude 06:12:21 69° 168° (SSE) 420 1.2 -12.9°
Drops below altitude 10° 06:15:33 10° 83° (E) 1,426 5.5 -12.3°
Sets 06:17:38 0° 81° (E) 2,284 7.0 -12.0°
